RYR764 EDDF-LOWW

Flight info

Callsign RYR764
Flight time N/A
Altitude 31000
Route SULUS4D/07C SULUS Z650 VEMUT/N0457F290 DCT BUDEX BUDEX2W
Aircraft A320/M-SDE3FGHIRWY/LB1

Departure

Time 2026-05-01 15:16
Airport Frankfurt Main Airport (EDDF)

Arrival

Time N/A
Airport Vienna International Airport (LOWW)
Time Latitude Longitude Altitude Speed Heading
2026-05-01 14:31 50.04686 8.56702 353 ft 0 kts 117°
2026-05-01 15:03 50.04693 8.56680 352 ft 3 kts 120°
2026-05-01 15:03 50.04704 8.56659 350 ft 2 kts 136°
2026-05-01 15:03 50.04716 8.56641 352 ft 2 kts 137°
2026-05-01 15:03 50.04731 8.56626 359 ft 3 kts 174°
2026-05-01 15:04 50.04749 8.56628 356 ft 3 kts 211°
2026-05-01 15:04 50.04759 8.56640 350 ft 2 kts 231°
2026-05-01 15:04 50.04771 8.56660 356 ft 2 kts 221°
2026-05-01 15:04 50.04781 8.56672 356 ft 0 kts 210°
2026-05-01 15:07 50.04780 8.56671 346 ft 2 kts 210°
2026-05-01 15:07 50.04738 8.56619 356 ft 9 kts 229°
2026-05-01 15:08 50.04696 8.56547 349 ft 11 kts 216°
2026-05-01 15:08 50.04601 8.56475 349 ft 9 kts 204°
2026-05-01 15:08 50.04548 8.56436 348 ft 8 kts 208°
2026-05-01 15:08 50.04514 8.56373 348 ft 9 kts 246°
2026-05-01 15:09 50.04493 8.56280 347 ft 9 kts 250°
2026-05-01 15:09 50.04472 8.56193 347 ft 8 kts 249°
2026-05-01 15:09 50.04453 8.56116 353 ft 7 kts 249°
2026-05-01 15:09 50.04430 8.56049 349 ft 7 kts 228°
2026-05-01 15:10 50.04390 8.56035 346 ft 6 kts 176°
2026-05-01 15:10 50.04300 8.56069 348 ft 9 kts 180°
2026-05-01 15:10 50.04227 8.56044 346 ft 10 kts 176°
2026-05-01 15:11 50.04158 8.56075 351 ft 11 kts 160°
2026-05-01 15:11 50.04052 8.55964 349 ft 11 kts 249°
2026-05-01 15:11 50.04027 8.55859 346 ft 10 kts 250°
2026-05-01 15:12 50.04004 8.55763 353 ft 9 kts 248°
2026-05-01 15:12 50.03953 8.55547 347 ft 14 kts 249°
2026-05-01 15:12 50.03919 8.55403 348 ft 14 kts 250°
2026-05-01 15:13 50.03815 8.54967 349 ft 13 kts 249°
2026-05-01 15:14 50.03759 8.54734 353 ft 19 kts 250°
2026-05-01 15:14 50.03711 8.54531 347 ft 16 kts 250°
2026-05-01 15:14 50.03601 8.54316 351 ft 12 kts 165°
2026-05-01 15:15 50.03498 8.54446 350 ft 2 kts 75°
2026-05-01 15:15 50.03726 8.55406 353 ft 121 kts 69°
2026-05-01 15:16 50.04495 8.58614 1377 ft 168 kts 72°
2026-05-01 15:16 50.05245 8.61976 3434 ft 163 kts 74°
2026-05-01 15:17 50.06105 8.65887 3997 ft 218 kts 74°
2026-05-01 15:18 50.07059 8.73031 4012 ft 244 kts 102°
2026-05-01 15:18 50.06761 8.75695 4016 ft 253 kts 102°
2026-05-01 15:19 50.05814 8.83979 5830 ft 265 kts 99°
2026-05-01 15:19 50.05841 8.89852 7793 ft 276 kts 91°
2026-05-01 15:19 50.05897 8.92853 8747 ft 280 kts 91°
2026-05-01 15:20 50.06010 8.98985 10602 ft 289 kts 91°
2026-05-01 15:20 50.06063 9.02233 10961 ft 313 kts 91°
2026-05-01 15:20 50.06113 9.05750 11263 ft 336 kts 90°
2026-05-01 15:21 50.06164 9.09458 11852 ft 347 kts 90°
2026-05-01 15:21 50.06219 9.13242 12621 ft 352 kts 90°
2026-05-01 15:21 50.06277 9.17021 13443 ft 355 kts 90°
2026-05-01 15:21 50.06337 9.20929 14239 ft 359 kts 90°
2026-05-01 15:22 50.06892 9.28669 15640 ft 369 kts 75°
2026-05-01 15:22 50.07860 9.32397 16337 ft 375 kts 64°
2026-05-01 15:22 50.09108 9.35978 17009 ft 378 kts 63°
2026-05-01 15:23 50.10369 9.39596 17694 ft 382 kts 63°
2026-05-01 15:23 50.11636 9.43250 18376 ft 386 kts 63°
2026-05-01 15:23 50.12913 9.46946 19002 ft 389 kts 63°
2026-05-01 15:23 50.14197 9.50678 19630 ft 392 kts 63°
2026-05-01 15:24 50.15488 9.54439 20251 ft 395 kts 63°
2026-05-01 15:24 50.16788 9.58234 20855 ft 398 kts 63°
2026-05-01 15:24 50.18099 9.62050 21452 ft 400 kts 63°
2026-05-01 15:24 50.19216 9.66040 22012 ft 402 kts 72°
2026-05-01 15:25 50.19861 9.70287 22556 ft 404 kts 82°
2026-05-01 15:25 50.20023 9.74684 23094 ft 407 kts 90°
2026-05-01 15:25 50.20009 9.79111 23613 ft 409 kts 90°
2026-05-01 15:25 50.19998 9.83510 24067 ft 413 kts 90°
2026-05-01 15:26 50.19986 9.88010 24470 ft 415 kts 90°
2026-05-01 15:26 50.19966 9.92524 24871 ft 418 kts 92°
2026-05-01 15:26 50.19609 9.97037 25266 ft 421 kts 102°
2026-05-01 15:26 50.18731 10.01421 25649 ft 425 kts 112°
2026-05-01 15:27 50.17353 10.05511 26011 ft 429 kts 122°
2026-05-01 15:27 50.15527 10.09215 26388 ft 433 kts 129°
2026-05-01 15:27 50.13570 10.12808 26733 ft 435 kts 129°
2026-05-01 15:28 50.09859 10.20310 27446 ft 439 kts 118°
2026-05-01 15:28 50.08553 10.24602 27782 ft 440 kts 109°
2026-05-01 15:28 50.07721 10.29189 28098 ft 441 kts 99°
2026-05-01 15:29 50.07416 10.38740 28721 ft 445 kts 89°
2026-05-01 15:29 50.07442 10.43568 28970 ft 448 kts 89°
2026-05-01 15:29 50.07475 10.53322 29610 ft 451 kts 89°
2026-05-01 15:30 50.07497 10.63066 30398 ft 450 kts 89°
2026-05-01 15:31 50.05576 10.82211 31351 ft 455 kts 107°
2026-05-01 15:31 50.03615 10.91428 31345 ft 451 kts 107°
2026-05-01 15:32 49.99674 11.09925 31350 ft 450 kts 107°
2026-05-01 15:34 49.93767 11.37578 31355 ft 449 kts 107°